"2016-01-11 00:00:00",1274331,2.02,218.5,5.71,1.281,0.499,98.73319,-3.928,-2.568,46.72,0,109.5,13.28,-3.19,180.5
"2016-01-11 00:00:30",1274332,1.932,207.7,7.156,1.313,0.488,98.73001,-3.936,-2.606,46.8,0,109.5,13.28,-3.20,169.7
"2016-01-11 00:01:00",1274333,2.321,209.2,8.82,1.345,1.116,98.70562,-3.998,-2.727,46.61,0,109.5,13.29,-3.26,171.2
"2016-01-11 00:01:30",1274334,2.298,211.6,8.23,1.319,1.428,98.70586,-3.997,-2.65,46.68,0,109.5,13.28,-3.26,173.6
"2016-01-11 00:02:00",1274335,2.234,222.9,9.83,1.316,1.249,98.67585,-4.074,-2.722,46.86,0,109.5,13.28,-3.34,184.9
"2016-01-11 00:02:30",1274336,2.538,211.1,7.087,1.361,1.668,98.66564,-4.1,-2.78,47.34,0,109.5,13.29,-3.36,173.1
"2016-01-11 00:03:00",1274337,1.675,203.2,5.858,1.138,-0.46,98.6413,-4.162,-2.918,47.34,0,109.5,13.29,-3.42,165.2
"2016-01-11 00:03:30",1274338,1.761,203.8,9.73,1.138,0.075,98.63734,-4.172,-2.857,47.61,0,109.5,13.29,-3.43,165.8
"2016-01-11 00:04:00",1274339,2.821,202,8.76,1.312,2.094,98.61073,-4.239,-2.855,47.76,0,109.5,13.29,-3.50,164.0
"2016-01-11 00:04:30",1274340,2.391,198.5,11.25,1.383,1.635,98.60394,-4.257,-2.954,47.79,0,109.5,13.3,-3.52,160.5
"2016-01-11 00:05:00",1274341,2.696,193.2,6.553,1.36,1.9,98.57847,-4.322,-2.988,47.96,0,109.5,13.3,-3.58,155.2
"2016-01-11 00:05:30",1274342,2.535,196,8.39,1.358,1.496,98.57054,-4.342,-2.95,47.98,0,109.5,13.31,-3.61,158.0
"2016-01-11 00:06:00",1274343,1.938,190.3,5.461,1.102,-0.362,98.54704,-4.402,-3.182,47.65,0,109.5,13.31,-3.67,152.3
"2016-01-11 00:06:30",1274344,2.222,196.2,8.01,1.189,0.446,98.53883,-4.423,-3.049,47.62,0,109.5,13.31,-3.69,158.2
"2016-01-11 00:07:00",1274345,3.306,200.1,7.359,1.277,2.548,98.51672,-4.479,-3.09,47.42,0,109.5,13.31,-3.74,162.1
"2016-01-11 00:07:30",1274346,2.977,195.2,7.708,1.375,2.332,98.51296,-4.488,-3.104,47.01,0,109.5,13.31,-3.75,157.2
"2016-01-11 00:08:00",1274347,3.509,199.3,8.91,1.219,3.117,98.50304,-4.514,-3.093,46.46,0,109.5,13.31,-3.78,161.3
"2016-01-11 00:08:30",1274348,2.326,195.6,7.845,1.205,0.593,98.48431,-4.561,-3.24,46.38,0,109.5,13.31,-3.83,157.6
"2016-01-11 00:09:00",1274349,1.956,192.1,6.561,1.1,0.114,98.48505,-4.559,-3.305,46.25,0,109.5,13.31,-3.82,154.1
"2016-01-11 00:09:30",1274350,2.235,197.3,7.716,1.224,0.463,98.46573,-4.609,-3.314,46.37,0,109.5,13.31,-3.87,159.3
"2016-01-11 00:10:00",1274351,2.445,190.7,7.025,1.269,1.723,98.4623,-4.617,-3.254,46.88,0,109.5,13.31,-3.88,152.7
"2016-01-11 00:10:30",1274352,3.011,195.4,7.167,1.333,2.764,98.45068,-4.647,-3.312,46.96,0,109.5,13.31,-3.91,157.4
"2016-01-11 00:11:00",1274353,2.78,200.2,9.28,1.313,1.772,98.43422,-4.689,-3.354,47.14,0,109.5,13.31,-3.95,162.2
"2016-01-11 00:11:30",1274354,2.113,195.3,8.83,1.231,0.504,98.43163,-4.695,-3.413,47.39,0,109.5,13.32,-3.96,157.3
"2016-01-11 00:12:00",1274355,1.905,197.5,9.22,1.111,-0.206,98.41516,-4.737,-3.485,47.79,0,109.5,13.32,-4.00,159.5
"2016-01-11 00:12:30",1274356,2.188,198.4,5.683,1.234,0.623,98.40298,-4.768,-3.473,48.64,0,109.5,13.32,-4.03,160.4
"2016-01-11 00:13:00",1274357,2.824,209.1,9.48,1.368,2.264,98.40128,-4.773,-3.396,48.93,0,109.4,13.32,-4.04,171.1
"2016-01-11 00:13:30",1274358,2.567,205.5,8.68,1.31,1.367,98.38486,-4.815,-3.503,49.05,0,109.4,13.32,-4.08,167.5
"2016-01-11 00:14:00",1274359,2.65,201.5,7.897,1.278,1.244,98.36958,-4.853,-3.532,49.01,0,109.5,13.32,-4.12,163.5
"2016-01-11 00:14:30",1274360,2.173,203.4,6.277,1.174,0.024,98.36873,-4.856,-3.608,48.88,0,109.4,13.32,-4.12,165.4
"2016-01-11 00:15:00",1274361,2.855,205.6,7.503,1.384,0.571,98.35542,-4.89,-3.63,48.93,0,109.4,13.32,-4.15,167.6
"2016-01-11 00:15:30",1274362,3.152,208.6,7.409,1.326,1.605,98.33927,-4.931,-3.541,49.18,0,109.5,13.32,-4.20,170.6
"2016-01-11 00:16:00",1274363,3.3,203.1,7.764,1.307,1.609,98.33503,-4.941,-3.638,49.21,0,109.4,13.32,-4.21,165.1
"2016-01-11 00:16:30",1274364,4.198,200.8,6.729,1.296,3.203,98.3302,-4.954,-3.541,49.08,0,109.4,13.32,-4.22,162.8
"2016-01-11 00:17:00",1274365,3.451,199.6,7.153,1.4,1.814,98.32079,-4.978,-3.652,48.8,0,109.4,13.32,-4.24,161.6
"2016-01-11 00:17:30",1274366,3.364,199.8,7.105,1.293,1.038,98.31081,-5.003,-3.665,48.84,0,109.4,13.31,-4.27,161.8
"2016-01-11 00:18:00",1274367,3.192,196.7,5.902,1.186,0.479,98.31302,-4.997,-3.724,48.83,0,109.4,13.32,-4.26,158.7
"2016-01-11 00:18:30",1274368,3.716,207.3,6.975,1.341,2.424,98.31636,-4.989,-3.702,48.85,0,109.4,13.32,-4.25,169.3
"2016-01-11 00:19:00",1274369,3.237,209.3,6.687,1.345,1.743,98.30553,-5.017,-3.672,49.08,0,109.4,13.32,-4.28,171.3
"2016-01-11 00:19:30",1274370,3.473,215.3,7.986,1.318,2.288,98.29416,-5.046,-3.691,49.51,0,109.4,13.32,-4.31,177.3
"2016-01-11 00:20:00",1274371,3.056,212.3,7.064,1.335,1.063,98.29128,-5.053,-3.815,49.83,0,109.4,13.32,-4.32,174.3
"2016-01-11 00:20:30",1274372,2.809,212.9,7.286,1.248,0.741,98.29211,-5.051,-3.771,50.25,0,109.4,13.33,-4.32,174.9
"2016-01-11 00:21:00",1274373,3.121,210.3,8.21,1.318,1.101,98.2924,-5.05,-3.806,50.63,0,109.4,13.33,-4.32,172.3
"2016-01-11 00:21:30",1274374,2.739,209.1,7.568,1.254,0.557,98.29008,-5.056,-3.769,50.95,0,109.4,13.33,-4.32,171.1
"2016-01-11 00:22:00",1274375,3.394,211.8,7.673,1.312,2.067,98.28015,-5.081,-3.815,51.21,0,109.4,13.33,-4.35,173.8
"2016-01-11 00:22:30",1274376,3.869,209.4,6.295,1.252,2.336,98.27811,-5.086,-3.752,51.46,0,109.4,13.33,-4.35,171.4
"2016-01-11 00:23:00",1274377,2.915,204.8,6.579,1.189,0.711,98.26846,-5.111,-3.869,51.32,0,109.4,13.34,-4.38,166.8
"2016-01-11 00:23:30",1274378,3.171,205.2,6.531,1.368,1.071,98.26648,-5.116,-3.911,51.26,0,109.4,13.33,-4.38,167.2
"2016-01-11 00:24:00",1274379,2.904,207.8,7.152,1.286,1.086,98.26648,-5.116,-3.885,51.74,0,109.4,13.34,-4.38,169.8
"2016-01-11 00:24:30",1274380,3.689,204,8.02,1.314,1.991,98.26648,-5.116,-3.855,52.11,0,109.4,13.34,-4.38,166.0
"2016-01-11 00:25:00",1274381,4.172,204.4,7.112,1.317,2.827,98.26535,-5.119,-3.806,51.72,0,109.4,13.34,-4.38,166.4
"2016-01-11 00:25:30",1274382,3.945,201.1,6.564,1.345,2.089,98.25487,-5.146,-3.881,51.12,0,109.4,13.34,-4.41,163.1
"2016-01-11 00:26:00",1274383,3.92,200.9,6.702,1.351,1.807,98.24693,-5.166,-3.894,50.76,0,109.4,13.34,-4.43,162.9
"2016-01-11 00:26:30",1274384,3.123,199.6,6.525,1.23,0.665,98.23674,-5.192,-3.962,50.42,0,109.4,13.34,-4.46,161.6
"2016-01-11 00:27:00",1274385,3.468,207,7.368,1.367,2.171,98.2325,-5.202,-3.873,50.42,0,109.4,13.34,-4.47,169.0
"2016-01-11 00:27:30",1274386,3.547,207.6,7.263,1.376,2.118,98.2325,-5.202,-3.864,50.72,0,109.4,13.34,-4.47,169.6
"2016-01-11 00:28:00",1274387,3.015,207.3,8.86,1.325,1.477,98.2325,-5.202,-3.9,51.25,0,109.4,13.34,-4.47,169.3
"2016-01-11 00:28:30",1274388,3.084,202.9,7.536,1.287,1.233,98.23277,-5.202,-3.91,51.79,0,109.4,13.34,-4.47,164.9
"2016-01-11 00:29:00",1274389,3.73,197.9,6.642,1.335,1.725,98.23277,-5.202,-3.94,51.83,0,109.4,13.34,-4.47,159.9
"2016-01-11 00:29:30",1274390,3.483,194.2,7.536,1.321,1.481,98.23583,-5.194,-3.982,51.22,0,109.4,13.34,-4.46,156.2
"2016-01-11 00:30:00",1274391,3.539,198.6,8.3,1.379,1.536,98.23522,-5.196,-3.968,50.56,0,109.4,13.34,-4.46,160.6
"2016-01-11 00:30:30",1274392,3.791,202.2,7.004,1.311,2.539,98.2323,-5.203,-3.87,50.57,0,109.4,13.34,-4.47,164.2
"2016-01-11 00:31:00",1274393,3.606,200.7,7.154,1.373,1.625,98.23052,-5.207,-3.976,50.64,0,109.4,13.34,-4.47,162.7
"2016-01-11 00:31:30",1274394,3.936,201.2,7.277,1.294,1.84,98.23104,-5.206,-3.949,50.59,0,109.4,13.34,-4.47,163.2
"2016-01-11 00:32:00",1274395,3.155,195.9,6.878,1.249,0.589,98.22393,-5.224,-4.031,50.2,0,109.4,13.34,-4.49,157.9
"2016-01-11 00:32:30",1274396,3.91,196.2,7.19,1.349,2.529,98.22079,-5.232,-3.959,49.94,0,109.4,13.34,-4.50,158.2
"2016-01-11 00:33:00",1274397,3.704,198,7.057,1.344,2.548,98.22021,-5.234,-3.915,49.3,0,109.4,13.34,-4.50,160.0
"2016-01-11 00:33:30",1274398,4.075,198.3,6.889,1.288,3.338,98.22187,-5.23,-3.921,48.83,0,109.4,13.34,-4.50,160.3
"2016-01-11 00:34:00",1274399,3.554,197.3,6.723,1.277,2.111,98.22521,-5.221,-3.996,48.36,0,109.4,13.34,-4.49,159.3
"2016-01-11 00:34:30",1274400,3.218,189.4,5.758,1.167,0.856,98.22827,-5.213,-3.992,47.86,0,109.4,13.34,-4.48,151.4
"2016-01-11 00:35:00",1274401,3.166,191.1,6.669,1.152,1.133,98.228,-5.214,-3.971,47.62,0,109.4,13.34,-4.48,153.1
"2016-01-11 00:35:30",1274402,4.57,200.1,6.094,1.166,4.007,98.228,-5.214,-3.921,47.45,0,109.4,13.34,-4.48,162.1
"2016-01-11 00:36:00",1274403,3.963,195.9,7.079,1.335,2.103,98.22743,-5.215,-3.993,47.25,0,109.4,13.34,-4.48,157.9
"2016-01-11 00:36:30",1274404,4.257,198.9,6.921,1.309,2.919,98.22911,-5.211,-3.918,47.65,0,109.4,13.34,-4.48,160.9
"2016-01-11 00:37:00",1274405,3.885,196,6.692,1.385,1.809,98.22827,-5.213,-3.964,48.54,0,109.4,13.34,-4.48,158.0
"2016-01-11 00:37:30",1274406,3.949,196.4,7.177,1.352,1.888,98.22883,-5.212,-3.967,48.97,0,109.4,13.35,-4.48,158.4
"2016-01-11 00:38:00",1274407,3.928,196.4,6.838,1.396,1.655,98.2305,-5.208,-4.021,48.32,0,109.4,13.35,-4.47,158.4
"2016-01-11 00:38:30",1274408,4.426,201.1,7.24,1.364,2.828,98.2305,-5.208,-3.989,47.5,0,109.4,13.35,-4.47,163.1
"2016-01-11 00:39:00",1274409,4.613,200.6,6.937,1.311,3.374,98.23161,-5.205,-3.948,46.73,0,109.4,13.35,-4.47,162.6
"2016-01-11 00:39:30",1274410,4.268,196.4,6.458,1.378,2.238,98.2319,-5.204,-3.974,45.93,0,109.4,13.36,-4.47,158.4
"2016-01-11 00:40:00",1274411,4.01,198,7.009,1.33,2.018,98.23161,-5.205,-3.955,45.56,0,109.4,13.35,-4.47,160.0
"2016-01-11 00:40:30",1274412,4.178,197.4,7.011,1.355,2.166,98.2319,-5.204,-4.014,45.27,0,109.4,13.36,-4.47,159.4
"2016-01-11 00:41:00",1274413,3.811,197,6.568,1.313,1.906,98.2319,-5.204,-3.968,45.22,0,109.4,13.36,-4.47,159.0
"2016-01-11 00:41:30",1274414,4.087,199.4,7.132,1.371,2.914,98.23245,-5.203,-3.916,45.1,0,109.4,13.36,-4.47,161.4
"2016-01-11 00:42:00",1274415,4.207,202,6.871,1.343,3.008,98.23245,-5.203,-3.927,44.96,0,109.4,13.36,-4.47,164.0
"2016-01-11 00:42:30",1274416,4.311,203.1,6.928,1.352,2.166,98.2353,-5.195,-3.972,44.86,0,109.4,13.36,-4.46,165.1
"2016-01-11 00:43:00",1274417,4.536,206.2,6.809,1.315,2.66,98.23869,-5.187,-3.934,44.83,0,109.4,13.36,-4.45,168.2
"2016-01-11 00:43:30",1274418,3.702,200.4,6.205,1.256,1.3,98.24436,-5.172,-3.951,44.73,0,109.4,13.36,-4.44,162.4
"2016-01-11 00:44:00",1274419,4.27,203.3,6.944,1.363,2.327,98.24747,-5.164,-3.906,44.44,0,109.4,13.36,-4.43,165.3
"2016-01-11 00:44:30",1274420,4.746,207.3,6.383,1.211,3.896,98.24974,-5.159,-3.899,44.09,0,109.4,13.36,-4.42,169.3
"2016-01-11 00:45:00",1274421,4.247,206.5,6.81,1.368,2.685,98.2537,-5.148,-3.914,43.92,0,109.4,13.36,-4.41,168.5
"2016-01-11 00:45:30",1274422,4.075,207.5,7.065,1.36,2.36,98.25994,-5.133,-3.924,44.08,0,109.4,13.36,-4.40,169.5
"2016-01-11 00:46:00",1274423,3.383,205.2,6.024,1.211,0.818,98.26448,-5.121,-3.941,44.33,0,109.4,13.36,-4.39,167.2
"2016-01-11 00:46:30",1274424,4.25,210.4,6.528,1.323,2.141,98.26589,-5.117,-3.928,44.71,0,109.4,13.36,-4.38,172.4
"2016-01-11 00:47:00",1274425,3.378,207.2,7.573,1.346,1.332,98.26589,-5.117,-3.889,45.14,0,109.4,13.36,-4.38,169.2
"2016-01-11 00:47:30",1274426,3.665,214.2,6.982,1.332,2.542,98.26589,-5.117,-3.826,46.05,0,109.4,13.36,-4.38,176.2
"2016-01-11 00:48:00",1274427,3.243,213.4,6.85,1.403,1.116,98.26589,-5.117,-3.894,47.16,0,109.4,13.36,-4.38,175.4
"2016-01-11 00:48:30",1274428,2.923,214.7,6.715,1.328,0.741,98.26646,-5.116,-3.924,48.11,0,109.4,13.36,-4.38,176.7
"2016-01-11 00:49:00",1274429,3.118,219.4,6.915,1.326,1.013,98.26756,-5.113,-3.902,48.9,0,109.4,13.36,-4.38,181.4
"2016-01-11 00:49:30",1274430,3.456,218.2,7.587,1.392,1.831,98.26756,-5.113,-3.856,49.78,0,109.4,13.36,-4.38,180.2
"2016-01-11 00:50:00",1274431,3.08,213.6,6.997,1.322,1.225,98.27258,-5.1,-3.857,50.32,0,109.4,13.36,-4.37,175.6
"2016-01-11 00:50:30",1274432,3.936,210.8,7.216,1.323,2.238,98.27508,-5.094,-3.789,50.68,0,109.4,13.35,-4.36,172.8
"2016-01-11 00:51:00",1274433,3.903,208.1,7.355,1.354,1.723,98.27815,-5.086,-3.858,50.88,0,109.4,13.35,-4.35,170.1
"2016-01-11 00:51:30",1274434,4.148,211.3,6.95,1.33,2.004,98.28344,-5.073,-3.805,50.53,0,109.4,13.36,-4.34,173.3
"2016-01-11 00:52:00",1274435,3.462,208.1,5.957,1.229,0.851,98.2865,-5.065,-3.858,49.49,0,109.4,13.35,-4.33,170.1
"2016-01-11 00:52:30",1274436,3.921,212.5,7.068,1.362,2.195,98.28984,-5.056,-3.779,48.6,0,109.4,13.36,-4.32,174.5
"2016-01-11 00:53:00",1274437,4.75,216,6.426,1.245,3.604,98.29068,-5.054,-3.813,47.08,0,109.4,13.36,-4.32,178.0
"2016-01-11 00:53:30",1274438,3.98,213.1,7.011,1.369,2.457,98.29096,-5.054,-3.803,45.99,0,109.4,13.36,-4.32,175.1
"2016-01-11 00:54:00",1274439,4.331,216,6.681,1.334,2.327,98.29124,-5.053,-3.849,45.09,0,109.4,13.36,-4.32,178.0
"2016-01-11 00:54:30",1274440,3.226,212.1,6.134,1.139,0.695,98.29402,-5.046,-3.89,44.53,0,109.4,13.36,-4.31,174.1
"2016-01-11 00:55:00",1274441,3.505,212.4,6.93,1.383,1.381,98.29374,-5.047,-3.847,44.63,0,109.4,13.36,-4.31,174.4
"2016-01-11 00:55:30",1274442,3.301,213.3,7.789,1.342,1.301,98.29346,-5.047,-3.827,46.35,0,109.4,13.37,-4.31,175.3
"2016-01-11 00:56:00",1274443,3.867,213.8,6.775,1.312,2.49,98.2943,-5.045,-3.79,48.21,0,109.4,13.37,-4.31,175.8
"2016-01-11 00:56:30",1274444,3.137,208,7.089,1.286,0.791,98.29514,-5.043,-3.866,49.35,0,109.4,13.37,-4.31,170.0
"2016-01-11 00:57:00",1274445,3.322,207.2,6.746,1.343,1.243,98.29709,-5.038,-3.775,50.45,0,109.4,13.37,-4.30,169.2
"2016-01-11 00:57:30",1274446,3.018,204.4,5.955,1.207,0.352,98.29875,-5.034,-3.892,50.94,0,109.4,13.37,-4.30,166.4
"2016-01-11 00:58:00",1274447,3.661,207.7,7.352,1.382,2.302,98.29709,-5.038,-3.735,51.24,0,109.4,13.37,-4.30,169.7
"2016-01-11 00:58:30",1274448,3.575,208,7.18,1.359,1.593,98.2982,-5.035,-3.886,51.17,0,109.4,13.37,-4.30,170.0
"2016-01-11 00:59:00",1274449,3.513,209.4,6.943,1.326,1.769,98.29875,-5.034,-3.752,51.43,0,109.4,13.37,-4.30,171.4
"2016-01-11 00:59:30",1274450,3.641,208.5,7.073,1.337,1.421,98.29875,-5.034,-3.88,51.54,0,109.4,13.37,-4.30,170.5
"2016-01-11 01:00:00",1274451,3.345,207.9,6.601,1.302,0.742,98.29875,-5.034,-3.9,51.84,0,109.4,13.37,-4.30,169.9
"2016-01-11 01:00:30",1274452,3.263,208.1,6.644,1.281,0.946,98.29789,-5.036,-3.854,51.62,0,109.4,13.37,-4.30,170.1
"2016-01-11 01:01:00",1274453,3.809,208.5,7.436,1.342,1.692,98.29251,-5.05,-3.844,51.23,0,109.4,13.37,-4.32,170.5
"2016-01-11 01:01:30",1274454,3.916,209.1,6.861,1.325,2.566,98.28542,-5.068,-3.79,51.42,0,109.4,13.37,-4.33,171.1
"2016-01-11 01:02:00",1274455,3.97,209.5,6.87,1.362,1.843,98.28259,-5.075,-3.854,51.51,0,109.4,13.37,-4.34,171.5
"2016-01-11 01:02:30",1274456,4.408,213.2,6.121,1.202,2.682,98.28004,-5.081,-3.813,51.28,0,109.4,13.37,-4.35,175.2
"2016-01-11 01:03:00",1274457,3.322,206.9,6.102,1.244,0.503,98.27409,-5.097,-3.927,50.95,0,109.4,13.37,-4.36,168.9
"2016-01-11 01:03:30",1274458,3.861,211,6.832,1.348,1.97,98.27012,-5.107,-3.834,50.96,0,109.4,13.37,-4.37,173.0
"2016-01-11 01:04:00",1274459,3.884,211.4,7.133,1.326,2.424,98.26559,-5.118,-3.825,50.96,0,109.4,13.37,-4.38,173.4
"2016-01-11 01:04:30",1274460,3.997,212.4,7.134,1.376,2.494,98.2653,-5.119,-3.824,51.36,0,109.4,13.37,-4.38,174.4
"2016-01-11 01:05:00",1274461,3.769,214.1,7.505,1.346,1.405,98.2653,-5.119,-3.888,51.44,0,109.4,13.37,-4.38,176.1
"2016-01-11 01:05:30",1274462,3.777,215.4,6.885,1.333,1.607,98.2653,-5.119,-3.86,49.99,0,109.4,13.37,-4.38,177.4
"2016-01-11 01:06:00",1274463,4.136,214.1,6.903,1.35,1.449,98.2653,-5.119,-3.982,47.63,0,109.4,13.37,-4.38,176.1
"2016-01-11 01:06:30",1274464,4.693,214.3,6.727,1.359,2.98,98.2653,-5.119,-3.801,45.97,0,109.4,13.37,-4.38,176.3
"2016-01-11 01:07:00",1274465,4.86,214.7,6.751,1.278,3.301,98.2653,-5.119,-3.86,44.84,0,109.4,13.37,-4.38,176.7
"2016-01-11 01:07:30",1274466,4.734,213.8,6.732,1.34,2.359,98.2653,-5.119,-3.899,44.23,0,109.4,13.37,-4.38,175.8
"2016-01-11 01:08:00",1274467,4.321,215.1,7.326,1.368,2.078,98.26417,-5.122,-3.872,43.96,0,109.4,13.37,-4.39,177.1
"2016-01-11 01:08:30",1274468,4.148,215.6,6.925,1.305,1.364,98.26417,-5.122,-3.926,43.72,0,109.4,13.36,-4.39,177.6
"2016-01-11 01:09:00",1274469,4.258,217.6,6.876,1.357,1.855,98.2636,-5.123,-3.924,43.56,0,109.4,13.36,-4.39,179.6
"2016-01-11 01:09:30",1274470,4.95,219.8,6.813,1.307,2.914,98.26501,-5.12,-3.893,43.48,0,109.4,13.37,-4.39,181.8
"2016-01-11 01:10:00",1274471,4.831,218.4,6.851,1.315,3.128,98.2653,-5.119,-3.848,43.44,0,109.4,13.37,-4.38,180.4
"2016-01-11 01:10:30",1274472,5.018,218.8,6.567,1.249,3.195,98.26501,-5.12,-3.876,43.34,0,109.4,13.37,-4.39,180.8
"2016-01-11 01:11:00",1274473,4.997,215.9,6.798,1.27,2.702,98.2653,-5.119,-3.913,43.26,0,109.4,13.37,-4.38,177.9
"2016-01-11 01:11:30",1274474,3.899,209.9,5.96,1.155,0.841,98.2653,-5.119,-3.914,43.12,0,109.3,13.37,-4.38,171.9
"2016-01-11 01:12:00",1274475,4.81,217.4,6.572,1.356,2.912,98.2653,-5.119,-3.871,43.1,0,109.4,13.37,-4.38,179.4
"2016-01-11 01:12:30",1274476,4.786,217.7,6.719,1.313,2.952,98.2653,-5.119,-3.879,43.1,0,109.3,13.37,-4.38,179.7
"2016-01-11 01:13:00",1274477,4.758,216.7,6.674,1.31,3.196,98.2653,-5.119,-3.826,43.17,0,109.3,13.38,-4.38,178.7
"2016-01-11 01:13:30",1274478,4.807,217.2,6.935,1.275,2.985,98.2653,-5.119,-3.808,43.16,0,109.3,13.37,-4.38,179.2
"2016-01-11 01:14:00",1274479,4.431,214.3,7.034,1.271,1.698,98.2653,-5.119,-3.925,42.96,0,109.4,13.38,-4.38,176.3
"2016-01-11 01:14:30",1274480,4.905,215.2,6.656,1.344,2.212,98.2653,-5.119,-3.925,42.75,0,109.4,13.38,-4.38,177.2
"2016-01-11 01:15:00",1274481,4.975,217.2,6.927,1.375,2.642,98.2653,-5.119,-3.865,42.58,0,109.4,13.38,-4.38,179.2
"2016-01-11 01:15:30",1274482,5.059,218.5,6.915,1.331,3.04,98.26899,-5.11,-3.828,42.47,0,109.3,13.38,-4.38,180.5
"2016-01-11 01:16:00",1274483,5.262,218.5,6.954,1.31,3.303,98.27749,-5.088,-3.807,42.31,0,109.4,13.38,-4.35,180.5
"2016-01-11 01:16:30",1274484,5.379,218.9,6.723,1.295,3.565,98.28628,-5.066,-3.779,42.2,0,109.4,13.38,-4.33,180.9
"2016-01-11 01:17:00",1274485,4.726,221.7,6.745,1.321,2.828,98.29789,-5.036,-3.769,42.28,0,109.4,13.38,-4.30,183.7
"2016-01-11 01:17:30",1274486,4.636,219.1,6.786,1.352,2.47,98.29932,-5.032,-3.83,42.62,0,109.3,13.38,-4.30,181.1
"2016-01-11 01:18:00",1274487,4.365,217.2,7.059,1.353,1.156,98.29932,-5.032,-3.885,42.73,0,109.3,13.38,-4.30,179.2
"2016-01-11 01:18:30",1274488,5.174,220.4,6.623,1.33,3.309,98.29932,-5.032,-3.756,42.8,0,109.3,13.38,-4.30,182.4
"2016-01-11 01:19:00",1274489,5.189,220.3,6.917,1.289,3.22,98.29959,-5.032,-3.733,42.61,0,109.3,13.38,-4.30,182.3
"2016-01-11 01:19:30",1274490,5.167,221.9,6.506,1.288,2.945,98.30811,-5.01,-3.751,42.52,0,109.4,13.38,-4.28,183.9
"2016-01-11 01:20:00",1274491,5.047,221.7,6.621,1.338,2.932,98.31519,-4.992,-3.676,42.66,0,109.4,13.38,-4.26,183.7
"2016-01-11 01:20:30",1274492,4.728,218.2,7.087,1.389,1.922,98.33022,-4.954,-3.743,42.42,0,109.3,13.38,-4.22,180.2
"2016-01-11 01:21:00",1274493,5.178,222.3,6.441,1.328,3.394,98.33334,-4.946,-3.689,42.34,0,109.3,13.38,-4.21,184.3
"2016-01-11 01:21:30",1274494,5.27,222.8,7.349,1.312,3.103,98.33361,-4.945,-3.706,42.14,0,109.4,13.38,-4.21,184.8
"2016-01-11 01:22:00",1274495,5.113,224.3,7.12,1.317,2.97,98.33418,-4.944,-3.706,41.07,0,109.3,13.38,-4.21,186.3
"2016-01-11 01:22:30",1274496,4.983,226.6,7.172,1.329,3.039,98.34523,-4.915,-3.634,40.1,0,109.3,13.38,-4.18,188.6
"2016-01-11 01:23:00",1274497,4.654,223.9,6.994,1.223,2.191,98.35317,-4.895,-3.63,39.39,0,109.3,13.38,-4.16,185.9
"2016-01-11 01:23:30",1274498,5.531,227.3,6.831,1.309,3.452,98.36649,-4.861,-3.627,39.08,0,109.3,13.38,-4.13,189.3
"2016-01-11 01:24:00",1274499,5.414,226.7,7.026,1.295,3.298,98.36818,-4.857,-3.594,39.33,0,109.3,13.37,-4.12,188.7
"2016-01-11 01:24:30",1274500,5.408,226.8,6.797,1.31,3.962,98.36874,-4.856,-3.567,39.98,0,109.4,13.37,-4.12,188.8
"2016-01-11 01:25:00",1274501,5.56,225.6,6.594,1.312,3.536,98.37301,-4.845,-3.546,39.42,0,109.4,13.37,-4.11,187.6
"2016-01-11 01:25:30",1274502,5.164,224.2,6.935,1.328,3.171,98.39454,-4.79,-3.622,38.87,0,109.3,13.37,-4.05,186.2
"2016-01-11 01:26:00",1274503,4.634,220.9,7.1,1.37,1.977,98.40303,-4.768,-3.566,38.66,0,109.3,13.37,-4.03,182.9
"2016-01-11 01:26:30",1274504,5.067,223.8,6.93,1.281,3.068,98.40359,-4.767,-3.582,38.41,0,109.3,13.37,-4.03,185.8
"2016-01-11 01:27:00",1274505,4.881,223.3,6.711,1.301,3.708,98.41063,-4.749,-3.493,38.32,0,109.3,13.38,-4.01,185.3
"2016-01-11 01:27:30",1274506,5.081,224.8,6.705,1.301,3.863,98.42506,-4.712,-3.466,38.83,0,109.3,13.38,-3.98,186.8
"2016-01-11 01:28:00",1274507,4.676,223.9,7.008,1.362,3.309,98.44175,-4.67,-3.462,39.27,0,109.3,13.38,-3.93,185.9
"2016-01-11 01:28:30",1274508,4.725,224.2,6.701,1.358,3.046,98.44179,-4.67,-3.476,39.46,0,109.3,13.38,-3.93,186.2
"2016-01-11 01:29:00",1274509,4.003,222.6,7.133,1.284,1.978,98.44235,-4.668,-3.495,39.45,0,109.4,13.38,-3.93,184.6
"2016-01-11 01:29:30",1274510,4.279,225,7.253,1.343,2.535,98.44746,-4.655,-3.491,39.31,0,109.3,13.38,-3.92,187.0
"2016-01-11 01:30:00",1274511,4.825,230.7,6.286,1.301,3.911,98.46188,-4.618,-3.394,39.39,0,109.3,13.38,-3.88,192.7
"2016-01-11 01:30:30",1274512,4.876,225.8,7.191,1.301,3.987,98.4783,-4.577,-3.352,39.45,0,109.4,13.38,-3.84,187.8
"2016-01-11 01:31:00",1274513,4.761,221.7,6.989,1.374,3.284,98.47971,-4.573,-3.428,39.26,0,109.4,13.38,-3.84,183.7
"2016-01-11 01:31:30",1274514,3.881,216.8,6.741,1.206,1.779,98.47887,-4.575,-3.363,38.91,0,109.3,13.38,-3.84,178.8
"2016-01-11 01:32:00",1274515,4.517,219.8,6.7,1.339,2.644,98.48228,-4.567,-3.409,38.63,0,109.3,13.38,-3.83,181.8
"2016-01-11 01:32:30",1274516,4.012,215.8,6.562,1.212,1.48,98.48966,-4.548,-3.327,38.55,0,109.4,13.38,-3.81,177.8
"2016-01-11 01:33:00",1274517,5.036,218.3,6.963,1.318,3.587,98.50491,-4.509,-3.269,38.77,0,109.4,13.38,-3.77,180.3
"2016-01-11 01:33:30",1274518,4.917,218.6,6.864,1.329,3.635,98.5168,-4.479,-3.264,39.65,0,109.4,13.38,-3.74,180.6
"2016-01-11 01:34:00",1274519,4.537,217,6.937,1.361,1.941,98.51708,-4.478,-3.234,40.74,0,109.4,13.38,-3.74,179.0
"2016-01-11 01:34:30",1274520,4.299,215.9,7.062,1.336,2.298,98.51708,-4.478,-3.299,41.41,0,109.4,13.38,-3.74,177.9
"2016-01-11 01:35:00",1274521,4.225,216.5,7.134,1.33,1.926,98.51652,-4.479,-3.362,42.02,0,109.4,13.38,-3.74,178.5
"2016-01-11 01:35:30",1274522,4.933,219.9,6.59,1.295,3.822,98.51765,-4.476,-3.222,42.66,0,109.4,13.38,-3.74,181.9
"2016-01-11 01:36:00",1274523,4.419,220.1,6.945,1.349,3.393,98.52586,-4.456,-3.225,42.76,0,109.4,13.39,-3.72,182.1
"2016-01-11 01:36:30",1274524,4.318,219.3,7.26,1.361,2.634,98.53492,-4.432,-3.228,42.82,0,109.4,13.38,-3.70,181.3
"2016-01-11 01:37:00",1274525,3.479,216.3,6.465,1.283,1.386,98.54738,-4.401,-3.191,42.9,0,109.4,13.39,-3.66,178.3
"2016-01-11 01:37:30",1274526,3.809,220.4,6.969,1.334,1.91,98.55389,-4.384,-3.229,42.88,0,109.4,13.39,-3.65,182.4
"2016-01-11 01:38:00",1274527,2.989,224.3,7.059,1.25,1.238,98.55361,-4.385,-3.226,42.97,0,109.4,13.39,-3.65,186.3
"2016-01-11 01:38:30",1274528,3.482,228.5,6.811,1.382,2.059,98.55389,-4.384,-3.23,43.16,0,109.4,13.38,-3.65,190.5
"2016-01-11 01:39:00",1274529,3.885,229.7,7.216,1.272,3.018,98.55334,-4.386,-3.148,43.51,0,109.4,13.38,-3.65,191.7
"2016-01-11 01:39:30",1274530,3.455,220.7,7.265,1.365,1.826,98.55473,-4.382,-3.174,43.64,0,109.4,13.38,-3.65,182.7
"2016-01-11 01:40:00",1274531,3.211,223.5,7.142,1.339,1.26,98.55556,-4.38,-3.19,43.76,0,109.4,13.38,-3.64,185.5
"2016-01-11 01:40:30",1274532,2.773,225.7,7.04,1.332,0.663,98.55529,-4.381,-3.244,44.06,0,109.4,13.38,-3.64,187.7
"2016-01-11 01:41:00",1274533,3.504,227.6,6.263,1.388,2.135,98.55556,-4.38,-3.119,44.44,0,109.3,13.38,-3.64,189.6
"2016-01-11 01:41:30",1274534,3.481,220.7,6.289,1.373,1.882,98.55502,-4.381,-3.159,44.29,0,109.4,13.38,-3.64,182.7
"2016-01-11 01:42:00",1274535,3.939,218.3,7.011,1.317,2.829,98.55473,-4.382,-3.087,44.2,0,109.4,13.38,-3.65,180.3
"2016-01-11 01:42:30",1274536,4.187,218.5,7.045,1.349,2.481,98.55445,-4.383,-3.165,43.66,0,109.4,13.38,-3.65,180.5
"2016-01-11 01:43:00",1274537,4.123,221.5,7.195,1.329,2.348,98.55473,-4.382,-3.233,42.9,0,109.4,13.38,-3.65,183.5
"2016-01-11 01:43:30",1274538,4.104,229.4,7.848,1.363,2.618,98.55502,-4.381,-3.175,41.85,0,109.4,13.38,-3.64,191.4
"2016-01-11 01:44:00",1274539,3.851,234.6,7.159,1.322,2.507,98.55473,-4.382,-3.194,41.14,0,109.4,13.38,-3.65,196.6
"2016-01-11 01:44:30",1274540,4.117,239.1,8.08,1.359,3.828,98.55445,-4.383,-3.102,40.86,0,109.4,13.38,-3.65,201.1